Spokane, WA
on Tuesday, January 1, 2013

Tuesday
Previous Day Next Day
Daily Summary
 ActualAverageRecord
Temperature
Mean Temperature °F 27°F  
Max Temperature 23°F 32°F 62°F (1918)
Min Temperature 10°F 22°F -22°F (1979)
Degree Days
Heating Degree Days 48 38  
Month to date heating degree days 48 38  
Since 1 July heating degree days 2473 2872  
Cooling Degree Days 0 0  
Month to date cooling degree days 0 0  
Year to date cooling degree days 0 0  
Moisture
Dew Point 18°F   
Average Humidity 91    
Maximum Humidity 100    
Minimum Humidity 81    
Precipitation
Precipitation T in 0.06 in 0.84 in (1994)
Month to date precipitation T 0.06  
Year to date precipitation T 0.06  
Snow
Snow T in 0.50 in 8.00 in (1899)
Month to date snowfall T 0.5  
Since 1 July snowfall 24.0 22.6  
Snow Depth 4.00 in   
Wind
Wind Speed 3 mph   
Max Wind Speed 10 mph   
Max Gust Speed 13 mph   
Visibility 7 miles   
Events Fog   

Key: T is trace of precipitation, MM is missing value
Source: NWS Daily Summary
Time(PST)TemperatureDew PointHumidity Pressure Visibility Wind DirectionWind SpeedGust SpeedPrecipitationEvents Conditions
12:39 AM 17.6°F 15.8°F 93% 30.39 in 3.0 miles South 3.5 mph - N/A   Mostly Cloudy
12:53 AM 18.0°F 16.0°F 92% 30.48 in 3.0 miles South 5.8 mph - N/A   Mostly Cloudy
1:24 AM 17.6°F 15.8°F 93% 30.38 in 1.0 miles SSE 5.8 mph - N/A   Mostly Cloudy
1:53 AM 18.0°F 17.1°F 96% 30.50 in 0.5 miles SSE 5.8 mph - N/A Fog Light Freezing Fog
2:53 AM 18.0°F 17.1°F 96% 30.53 in 0.5 miles Calm Calm - N/A Fog Light Freezing Fog
3:47 AM 19.4°F 17.6°F 93% 30.43 in 2.0 miles SW 4.6 mph - N/A   Overcast
3:53 AM 19.0°F 17.1°F 92% 30.54 in 2.0 miles SW 3.5 mph - N/A   Overcast
3:57 AM 19.4°F 17.6°F 93% 30.44 in 3.0 miles Calm Calm - N/A   Overcast
4:53 AM 18.0°F 16.0°F 92% 30.56 in 3.0 miles Calm Calm - N/A   Overcast
5:53 AM 18.0°F 16.0°F 92% 30.57 in 7.0 miles SSE 3.5 mph - N/A   Overcast
6:53 AM 19.0°F 16.0°F 88% 30.57 in 7.0 miles SSE 5.8 mph - N/A   Overcast
7:53 AM 19.9°F 18.0°F 92% 30.58 in 8.0 miles South 6.9 mph - N/A   Overcast
8:53 AM 21.0°F 19.0°F 92% 30.61 in 8.0 miles SW 9.2 mph - N/A   Overcast
9:53 AM 21.9°F 19.0°F 89% 30.63 in 10.0 miles SW 6.9 mph - 0.00 in   Overcast
10:07 AM 21.2°F 19.4°F 93% 30.52 in 10.0 miles SW 5.8 mph - N/A   Overcast
10:53 AM 23.0°F 19.9°F 88% 30.64 in 10.0 miles SW 6.9 mph - 0.00 in   Overcast
11:53 AM 23.0°F 19.9°F 88% 30.63 in 10.0 miles West 5.8 mph - N/A   Overcast
12:53 PM 21.9°F 19.0°F 89% 30.63 in 10.0 miles West 5.8 mph - N/A   Overcast
1:53 PM 23.0°F 19.0°F 85% 30.62 in 10.0 miles Calm Calm - N/A   Overcast
2:53 PM 21.9°F 19.0°F 89% 30.63 in 10.0 miles West 3.5 mph - N/A   Overcast
3:53 PM 23.0°F 19.9°F 88% 30.62 in 10.0 miles Calm Calm - N/A   Overcast
4:53 PM 21.9°F 19.9°F 92% 30.63 in 10.0 miles Calm Calm - N/A   Overcast
5:53 PM 23.0°F 19.9°F 88% 30.62 in 4.0 miles Calm Calm - N/A   Overcast
6:53 PM 21.9°F 19.0°F 89% 30.63 in 10.0 miles Calm Calm - N/A   Overcast
7:53 PM 23.0°F 19.9°F 88% 30.63 in 10.0 miles Calm Calm - N/A   Overcast
8:53 PM 23.0°F 19.9°F 88% 30.63 in 10.0 miles Calm Calm - N/A   Overcast
9:53 PM 23.0°F 18.0°F 81% 30.63 in 10.0 miles ESE 3.5 mph - N/A   Overcast
10:04 PM 23.0°F 19.4°F 86% 30.53 in 10.0 miles Calm Calm - N/A   Overcast
10:53 PM 21.9°F 19.0°F 89% 30.63 in 10.0 miles Calm Calm - N/A   Overcast
11:53 PM 21.9°F 19.0°F 89% 30.63 in 10.0 miles North 3.5 mph - N/A   Overcast
Moon Phase
Jan. 01 Jan. 04 Jan. 11 Jan. 18 Jan. 26
Sunrise:07:38 AM (PST) Moon Rise:09:06 PM (PST)1/1
Sunset:04:09 PM (PST) Moon Set:09:33 AM (PST)1/1

Copyright © 2014 The Weather Underground, Inc.